Regional Weather Roundup
Issued by NWS Cleveland, OH

Home | Current Version | Previous Version | Text Only | Print | Product List | Glossary On
Versions: 1 2 3 4 5 6 7 8 9 10 11 12 13 14 15 16 17 18 19 20 21 22 23 24 25 26 27 28 29 30 31 32 33 34 35 36 37 38 39 40 41 42 43 44 45 46 47 48 49 50
000
ASUS41 KCLE 232112
RWRCLE
OHIO REGIONAL WEATHER ROUNDUP
NATIONAL WEATHER SERVICE WILMINGTON, OH
500 PM EDT THU MAY 23 2019

NOTE: "FAIR" INDICATES FEW OR NO CLOUDS BELOW 12,000 FEET WITH NO
SIGNIFICANT WEATHER AND/OR OBSTRUCTIONS TO VISIBILITY.

OHZ001>008-015>018-024>027-034-035-043-044-232200-
   NORTHWEST OHIO

CITY           SKY/WX    TMP DP  RH WIND       PRES   REMARKS
DEFIANCE       FAIR      80  57  45 W9G25     29.99R
FINDLAY        PTSUNNY   81  65  58 W18G29    29.97S
TOLEDO EXPRESS FAIR      81  54  39 W23G33    29.97R
TOLEDO EXEC    FAIR      80  58  46 W22G33    29.96S
LIMA           FAIR      81  67  62 W22G30    30.00S
$$

OHZ009>014-019>023-028>033-038-089-232200-
   NORTHEAST OHIO

CITY           SKY/WX    TMP DP  RH WIND       PRES   REMARKS
CLE-HOPKINS    PTSUNNY   83  63  50 W22G31    29.96S
CLE-LAKEFRONT  FAIR      69  58  67 W20       29.93S
CUY CO. ARPT   MOSUNNY   77  61  57 W17G28    29.95S
LORAIN-ELYRIA  PTSUNNY   82  60  47 W15G24    29.96R
ASHTABULA      LGT RAIN  80  62  54 W21G37    29.93F
AKRON-CANTON   PTSUNNY   83  64  52 W15G30    29.98F
WOOSTER        FAIR      81  65  58 W21G37    29.98F
MANSFIELD      FAIR      81  66  60 SW21G29   29.99F
YOUNGSTOWN     PTSUNNY   83  61  47 W17G30    29.94F
$$

OHZ042-051>053-060>062-070>072-077>081-232200-
  SOUTHWEST OHIO

CITY           SKY/WX    TMP DP  RH WIND       PRES   REMARKS
CINC-COVINGTON TSTM      76  67  73 S14G30    30.06S
CINC-LUNKEN    TSTM      78  70  76 SW32G46   30.05S VSB 3/4
HAMILTON       PTSUNNY   84  71  65 W8G17     30.04F
DAYTON         PTSUNNY   81  70  69 SW22G30   30.04F
WRIGHT-PAT AFB PTSUNNY   82  71  69 SW12      30.03F
DAYTON GENERAL FAIR      84  70  62 SW12      30.05F
WILMINGTON     FAIR      82  72  71 W18G28    30.05F
$$

OHZ036-037-039>041-045>050-054>059-063>069-073>076-082>088-232200-
  CENTRAL AND SOUTHEAST OHIO

CITY           SKY/WX    TMP DP  RH WIND       PRES   REMARKS
COLUMBUS       PTSUNNY   82  67  60 W20G25    30.02F
OSU AIRPORT    FAIR      81  69  67 W17G28    30.03F
BOLTON FIELD   PTSUNNY   81  72  74 W18       30.04F
RICKENBACK AFB PTSUNNY   80  68  65 W17G24    30.03F
NEWARK         PTSUNNY   82  70  66 W15G25    30.02S
MARION         FAIR      82  65  56 W22G31    30.00F
LANCASTER      PTSUNNY   81  70  69 W17G29    30.05R
ZANESVILLE     PTSUNNY   81  66  60 W16G22    30.03S
NEW PHILLY     FAIR      82  66  58 SW12G21   29.99F
$$



USA.gov is the U.S. government's official web portal to all federal, state and local government web resources and services.